Weather History for KMQE - March, 2013

Change the Weather History Date:

Monday, March 11, 2013

  Actual Average (KBOS) Record (KBOS)
Temperature  
Mean Temperature 40 °F 37 °F  
Max Temperature 48 °F 44 °F 67 °F (1990)
Min Temperature 33 °F 30 °F 9 °F (1939)
Degree Days  
Heating Degree Days 24 28  
Month to date heating degree days 323  
Since 1 July heating degree days 4365  
Cooling Degree Days 0 0  
Month to date cooling degree days 0  
Year to date cooling degree days 0  
Moisture  
Dew Point 34 °F    
Average Humidity 82    
Maximum Humidity 93    
Minimum Humidity 61    
Precipitation  
Precipitation 0.00 in 0.13 in 1.94 in (1901)
Month to date precipitation 1.46  
Year to date precipitation 8.07  
Sea Level Pressure  
Sea Level Pressure 30.25 in    
Wind  
Wind Speed 12 mph (South)    
Max Wind Speed 18 mph    
Max Gust Speed 25 mph    
T = Trace of Precipitation, MM = Missing Value Source: NWS Daily Summary

Daily Weather History Graph

Daily Weather History Graph

Search for Another Location

Airport or City:

Trip Planner

Search our weather history database for the weather conditions in past years. The results will help you decide how hot, cold, wet, or windy it might be!

Date:

Astronomy

Mar. 11, 2013 Rise Set
Actual Time 7:02 AM EDT 6:46 PM EDT
Civil Twilight 6:34 AM EDT 7:14 PM EDT
Nautical Twilight 6:02 AM EDT 7:47 PM EDT
Astronomical Twilight 5:29 AM EDT 8:19 PM EDT
Moon 6:34 AM EDT (3/11) 6:56 PM EDT (3/11)
Length of Visible Light 12h 39m
Length of Day
11h 43m
Waning Crescent, 0% of the Moon is Illuminated
Mar 11
Waning Crescent
Mar 11
New
Mar 19
First Quarter
Mar 27
Full
Apr 3
Last Quarter

Hourly Weather History & Observations

Time (EDT) Temp. Windchill Dew Point Humidity Pressure Visibility Wind Dir Wind Speed Gust Speed Precip Events Conditions
12:54 AM 33.1 °F 25.5 °F 30.0 °F 89% 30.33 in - South 9.2 mph - N/A   Unknown
1:54 AM 33.1 °F 24.9 °F 30.9 °F 92% 30.33 in - SSW 10.4 mph 17.3 mph N/A   Unknown
2:54 AM 34.0 °F 26.0 °F 30.9 °F 89% 30.33 in - SSW 10.4 mph - N/A   Unknown
3:54 AM 34.0 °F 25.5 °F 30.9 °F 89% 30.28 in - South 11.5 mph 17.3 mph N/A   Unknown
4:54 AM 34.0 °F 26.0 °F 30.9 °F 89% 30.29 in - SSW 10.4 mph - N/A   Unknown
5:54 AM 34.0 °F 25.5 °F 30.9 °F 89% 30.28 in - South 11.5 mph - N/A   Unknown
6:54 AM 34.0 °F 25.0 °F 30.9 °F 89% 30.29 in - SSW 12.7 mph - N/A   Unknown
7:54 AM 34.0 °F 25.5 °F 30.9 °F 89% 30.29 in - SSW 11.5 mph - N/A   Unknown
8:54 AM 36.0 °F 27.5 °F 32.0 °F 86% 30.28 in - SSW 12.7 mph 19.6 mph N/A   Unknown
9:54 AM 39.0 °F 31.4 °F 33.1 °F 79% 30.28 in - SW 12.7 mph - N/A   Unknown
10:54 AM 42.1 °F 35.2 °F 33.1 °F 70% 30.28 in - SSW 12.7 mph 20.7 mph N/A   Unknown
11:54 AM 44.1 °F 39.0 °F 34.0 °F 68% 30.28 in - South 9.2 mph - N/A   Unknown
12:54 PM 45.0 °F 39.7 °F 35.1 °F 68% 30.27 in - South 10.4 mph - N/A   Unknown
1:54 PM 46.0 °F 40.2 °F 35.1 °F 66% 30.25 in - South 12.7 mph - N/A   Unknown
2:54 PM 48.0 °F - 36.0 °F 63% 30.23 in - South 11.5 mph - N/A   Unknown
3:54 PM 48.9 °F - 36.0 °F 61% 30.22 in - South 11.5 mph 19.6 mph N/A   Unknown
4:54 PM 46.0 °F 38.8 °F 36.0 °F 68% 30.21 in - South 18.4 mph 24.2 mph N/A   Unknown
5:54 PM 43.0 °F 35.1 °F 36.0 °F 76% 30.20 in - South 17.3 mph 25.3 mph N/A   Unknown
6:54 PM 42.1 °F 33.9 °F 37.0 °F 82% 30.20 in - South 17.3 mph 23.0 mph N/A   Unknown
7:54 PM 41.0 °F 32.2 °F 37.0 °F 86% 30.21 in - South 18.4 mph 21.9 mph N/A   Unknown
8:54 PM 39.9 °F 32.1 °F 37.9 °F 93% 30.20 in - South 13.8 mph 21.9 mph N/A   Unknown
9:54 PM 39.9 °F 32.5 °F 37.0 °F 89% 30.19 in - South 12.7 mph - N/A   Unknown
10:54 PM 39.0 °F 30.3 °F 37.0 °F 93% 30.17 in - South 16.1 mph - N/A   Unknown
11:54 PM 39.0 °F 30.3 °F 37.0 °F 93% 30.18 in - South 16.1 mph - N/A   Unknown